<?xml version="1.0" encoding="UTF-8" standalone="no" ?><gpx xmlns="http://www.topografix.com/GPX/1/1" xmlns:gpxx="http://www.garmin.com/xmlschemas/GpxExtensions/v3" xmlns:wptx1="http://www.garmin.com/xmlschemas/WaypointExtension/v1" xmlns:gpxtpx="http://www.garmin.com/xmlschemas/TrackPointExtension/v1" creator="GuideVTT.com" version="1.1" xmlns:xsi="http://www.w3.org/2001/XMLSchema-instance" xsi:schemaLocation="http://www.topografix.com/GPX/1/1 http://www.topografix.com/GPX/1/1/gpx.xsd http://www.garmin.com/xmlschemas/GpxExtensions/v3 http://www8.garmin.com/xmlschemas/GpxExtensionsv3.xsd http://www.garmin.com/xmlschemas/WaypointExtension/v1 http://www8.garmin.com/xmlschemas/WaypointExtensionv1.xsd http://www.garmin.com/xmlschemas/TrackPointExtension/v1 http://www.garmin.com/xmlschemas/TrackPointExtensionv1.xsd">
<metadata><link href="http://www.garmin.com"><text>Garmin International</text></link><time>2013-06-22T15:13:50Z</time></metadata>
<trk><name>camp.gpx</name><extensions><gpxx:TrackExtension><gpxx:DisplayColor>Cyan</gpxx:DisplayColor></gpxx:TrackExtension></extensions><trkseg>
<trkpt lat="43.17694500" lon="0.28654900"><ele>505.420807</ele><time>2007-01-31T22:52:36Z</time></trkpt>
<trkpt lat="43.17666200" lon="0.28768900"><ele>506.720001</ele><time>2007-01-31T22:52:36Z</time></trkpt>
<trkpt lat="43.17647600" lon="0.28861700"><ele>509.959991</ele><time>2007-01-31T22:52:36Z</time></trkpt>
<trkpt lat="43.17637600" lon="0.28960300"><ele>512.639954</ele><time>2007-01-31T22:52:36Z</time></trkpt>
<trkpt lat="43.17609800" lon="0.29066900"><ele>517.599976</ele><time>2007-01-31T22:52:36Z</time></trkpt>
<trkpt lat="43.17583100" lon="0.29167300"><ele>521.840027</ele><time>2007-01-31T22:52:36Z</time></trkpt>
<trkpt lat="43.17745600" lon="0.29275700"><ele>519.9776</ele><time>2007-01-31T22:52:36Z</time></trkpt>
<trkpt lat="43.17807000" lon="0.29375400"><ele>515.436768</ele><time>2007-01-31T22:52:36Z</time></trkpt>
<trkpt lat="43.17855500" lon="0.29432700"><ele>513.23999</ele><time>2007-01-31T22:52:36Z</time></trkpt>
<trkpt lat="43.17956900" lon="0.29516200"><ele>510</ele><time>2007-01-31T22:52:36Z</time></trkpt>
<trkpt lat="43.18035100" lon="0.29624000"><ele>504.846405</ele><time>2007-01-31T22:52:36Z</time></trkpt>
<trkpt lat="43.18079800" lon="0.29683800"><ele>502.895996</ele><time>2007-01-31T22:52:36Z</time></trkpt>
<trkpt lat="43.18096200" lon="0.29727500"><ele>502.516785</ele><time>2007-01-31T22:52:36Z</time></trkpt>
<trkpt lat="43.18207900" lon="0.29874600"><ele>505.152008</ele><time>2007-01-31T22:52:36Z</time></trkpt>
<trkpt lat="43.18308600" lon="0.30038000"><ele>510.600006</ele><time>2007-01-31T22:52:36Z</time></trkpt>
<trkpt lat="43.18440600" lon="0.30226200"><ele>512.891174</ele><time>2007-01-31T22:52:36Z</time></trkpt>
<trkpt lat="43.18484900" lon="0.30273800"><ele>513.880005</ele><time>2007-01-31T22:52:36Z</time></trkpt>
<trkpt lat="43.18598900" lon="0.30267300"><ele>511</ele><time>2007-01-31T22:52:36Z</time></trkpt>
<trkpt lat="43.18631400" lon="0.30279600"><ele>511</ele><time>2007-01-31T22:52:36Z</time></trkpt>
<trkpt lat="43.18663000" lon="0.30467700"><ele>509.160004</ele><time>2007-01-31T22:52:36Z</time></trkpt>
<trkpt lat="43.18666800" lon="0.30616200"><ele>509.119995</ele><time>2007-01-31T22:52:36Z</time></trkpt>
<trkpt lat="43.18661500" lon="0.30685100"><ele>510.480011</ele><time>2007-01-31T22:52:36Z</time></trkpt>
<trkpt lat="43.18642400" lon="0.30766900"><ele>513.159973</ele><time>2007-01-31T22:52:36Z</time></trkpt>
<trkpt lat="43.18616500" lon="0.30944600"><ele>517.880005</ele><time>2007-01-31T22:52:36Z</time></trkpt>
<trkpt lat="43.18652000" lon="0.30991300"><ele>518</ele><time>2007-01-31T22:52:36Z</time></trkpt>
<trkpt lat="43.18619500" lon="0.30997400"><ele>518.559998</ele><time>2007-01-31T22:52:36Z</time></trkpt>
<trkpt lat="43.18617600" lon="0.31087100"><ele>516.599976</ele><time>2007-01-31T22:52:36Z</time></trkpt>
<trkpt lat="43.18410500" lon="0.31103000"><ele>520.159973</ele><time>2007-01-31T22:52:36Z</time></trkpt>
<trkpt lat="43.18359000" lon="0.31106000"><ele>521.359985</ele><time>2007-01-31T22:52:36Z</time></trkpt>
<trkpt lat="43.18280000" lon="0.31063400"><ele>524.486389</ele><time>2007-01-31T22:52:36Z</time></trkpt>
<trkpt lat="43.18228100" lon="0.31028300"><ele>524.031982</ele><time>2007-01-31T22:52:36Z</time></trkpt>
<trkpt lat="43.18165600" lon="0.30975300"><ele>519.815979</ele><time>2007-01-31T22:52:36Z</time></trkpt>
<trkpt lat="43.18143800" lon="0.30978500"><ele>518.700806</ele><time>2007-01-31T22:52:36Z</time></trkpt>
<trkpt lat="43.18102600" lon="0.31043800"><ele>515.712036</ele><time>2007-01-31T22:52:36Z</time></trkpt>
<trkpt lat="43.18050400" lon="0.31137800"><ele>514.200012</ele><time>2007-01-31T22:52:36Z</time></trkpt>
<trkpt lat="43.18011500" lon="0.31212900"><ele>512.096008</ele><time>2007-01-31T22:52:36Z</time></trkpt>
<trkpt lat="43.18004600" lon="0.31281900"><ele>509.040009</ele><time>2007-01-31T22:52:36Z</time></trkpt>
<trkpt lat="43.17996200" lon="0.31323900"><ele>506.559998</ele><time>2007-01-31T22:52:36Z</time></trkpt>
<trkpt lat="43.17987400" lon="0.31394200"><ele>498.640015</ele><time>2007-01-31T22:52:36Z</time></trkpt>
<trkpt lat="43.17966800" lon="0.31439200"><ele>493.73761</ele><time>2007-01-31T22:52:36Z</time></trkpt>
<trkpt lat="43.17949700" lon="0.31453300"><ele>491.359985</ele><time>2007-01-31T22:52:36Z</time></trkpt>
<trkpt lat="43.17874500" lon="0.31455900"><ele>491.119995</ele><time>2007-01-31T22:52:36Z</time></trkpt>
<trkpt lat="43.17960000" lon="0.31460300"><ele>490.880005</ele><time>2007-01-31T22:52:36Z</time></trkpt>
<trkpt lat="43.17976800" lon="0.31381100"><ele>501.071991</ele><time>2007-01-31T22:52:36Z</time></trkpt>
<trkpt lat="43.17999600" lon="0.31242700"><ele>512.23999</ele><time>2007-01-31T22:52:36Z</time></trkpt>
<trkpt lat="43.18151100" lon="0.30989300"><ele>518.45282</ele><time>2007-01-31T22:52:36Z</time></trkpt>
<trkpt lat="43.18150700" lon="0.31052000"><ele>517.23999</ele><time>2007-01-31T22:52:36Z</time></trkpt>
<trkpt lat="43.18116400" lon="0.31112100"><ele>512.176025</ele><time>2007-01-31T22:52:36Z</time></trkpt>
<trkpt lat="43.18103000" lon="0.31197300"><ele>509.679993</ele><time>2007-01-31T22:52:36Z</time></trkpt>
<trkpt lat="43.18099200" lon="0.31278500"><ele>506.079987</ele><time>2007-01-31T22:52:36Z</time></trkpt>
<trkpt lat="43.18104600" lon="0.31352000"><ele>505.936005</ele><time>2007-01-31T22:52:36Z</time></trkpt>
<trkpt lat="43.18086600" lon="0.31423900"><ele>492.911987</ele><time>2007-01-31T22:52:36Z</time></trkpt>
<trkpt lat="43.18092700" lon="0.31478900"><ele>489.863983</ele><time>2007-01-31T22:52:36Z</time></trkpt>
<trkpt lat="43.18063400" lon="0.31507000"><ele>482.631989</ele><time>2007-01-31T22:52:36Z</time></trkpt>
<trkpt lat="43.18162500" lon="0.31553900"><ele>482.713593</ele><time>2007-01-31T22:52:36Z</time></trkpt>
<trkpt lat="43.18142300" lon="0.31623400"><ele>475.080017</ele><time>2007-01-31T22:52:36Z</time></trkpt>
<trkpt lat="43.18145400" lon="0.31749800"><ele>466.23999</ele><time>2007-01-31T22:52:36Z</time></trkpt>
<trkpt lat="43.18139600" lon="0.31796600"><ele>462.587219</ele><time>2007-01-31T22:52:36Z</time></trkpt>
<trkpt lat="43.18159500" lon="0.31867200"><ele>456.47998</ele><time>2007-01-31T22:52:36Z</time></trkpt>
<trkpt lat="43.18153800" lon="0.31925100"><ele>450.319977</ele><time>2007-01-31T22:52:36Z</time></trkpt>
<trkpt lat="43.18128200" lon="0.31997200"><ele>445.393585</ele><time>2007-01-31T22:52:36Z</time></trkpt>
<trkpt lat="43.18119400" lon="0.32063800"><ele>441.399994</ele><time>2007-01-31T22:52:36Z</time></trkpt>
<trkpt lat="43.18115200" lon="0.32148700"><ele>433.995209</ele><time>2007-01-31T22:52:36Z</time></trkpt>
<trkpt lat="43.18120200" lon="0.32198900"><ele>429.23999</ele><time>2007-01-31T22:52:36Z</time></trkpt>
<trkpt lat="43.18198800" lon="0.32288300"><ele>418.78241</ele><time>2007-01-31T22:52:36Z</time></trkpt>
<trkpt lat="43.18242600" lon="0.32295300"><ele>418.463989</ele><time>2007-01-31T22:52:36Z</time></trkpt>
<trkpt lat="43.18276600" lon="0.32288000"><ele>415.979218</ele><time>2007-01-31T22:52:36Z</time></trkpt>
<trkpt lat="43.18344100" lon="0.32322500"><ele>417.26239</ele><time>2007-01-31T22:52:36Z</time></trkpt>
<trkpt lat="43.18416600" lon="0.32359300"><ele>413.507202</ele><time>2007-01-31T22:52:36Z</time></trkpt>
<trkpt lat="43.18475300" lon="0.32362100"><ele>410.409607</ele><time>2007-01-31T22:52:36Z</time></trkpt>
<trkpt lat="43.18599300" lon="0.32445000"><ele>416.840027</ele><time>2007-01-31T22:52:36Z</time></trkpt>
<trkpt lat="43.18638200" lon="0.32469400"><ele>416.679993</ele><time>2007-01-31T22:52:36Z</time></trkpt>
<trkpt lat="43.18681000" lon="0.32467900"><ele>419.52002</ele><time>2007-01-31T22:52:36Z</time></trkpt>
<trkpt lat="43.18719100" lon="0.32472700"><ele>420.360016</ele><time>2007-01-31T22:52:36Z</time></trkpt>
<trkpt lat="43.18751100" lon="0.32493700"><ele>419.460815</ele><time>2007-01-31T22:52:36Z</time></trkpt>
<trkpt lat="43.18795400" lon="0.32510600"><ele>418.880005</ele><time>2007-01-31T22:52:36Z</time></trkpt>
<trkpt lat="43.18845000" lon="0.32559200"><ele>420.399994</ele><time>2007-01-31T22:52:36Z</time></trkpt>
<trkpt lat="43.18863700" lon="0.32643300"><ele>418.880005</ele><time>2007-01-31T22:52:36Z</time></trkpt>
<trkpt lat="43.18858000" lon="0.32698800"><ele>414.257599</ele><time>2007-01-31T22:52:36Z</time></trkpt>
<trkpt lat="43.18926200" lon="0.32777400"><ele>414.654388</ele><time>2007-01-31T22:52:36Z</time></trkpt>
<trkpt lat="43.18971300" lon="0.32832400"><ele>414.208008</ele><time>2007-01-31T22:52:36Z</time></trkpt>
<trkpt lat="43.18994500" lon="0.32881900"><ele>413.559998</ele><time>2007-01-31T22:52:36Z</time></trkpt>
<trkpt lat="43.19023100" lon="0.32925100"><ele>410.641602</ele><time>2007-01-31T22:52:36Z</time></trkpt>
<trkpt lat="43.19033100" lon="0.32988700"><ele>407.071991</ele><time>2007-01-31T22:52:36Z</time></trkpt>
<trkpt lat="43.19021200" lon="0.33078800"><ele>403.191986</ele><time>2007-01-31T22:52:36Z</time></trkpt>
<trkpt lat="43.18994900" lon="0.33130000"><ele>399.567993</ele><time>2007-01-31T22:52:36Z</time></trkpt>
<trkpt lat="43.19008300" lon="0.33215600"><ele>394.199982</ele><time>2007-01-31T22:52:36Z</time></trkpt>
<trkpt lat="43.19002200" lon="0.33287000"><ele>388.279999</ele><time>2007-01-31T22:52:36Z</time></trkpt>
<trkpt lat="43.18916700" lon="0.33551600"><ele>378.222412</ele><time>2007-01-31T22:52:36Z</time></trkpt>
<trkpt lat="43.18795800" lon="0.33888700"><ele>372.119995</ele><time>2007-01-31T22:52:36Z</time></trkpt>
<trkpt lat="43.18784000" lon="0.33954200"><ele>371</ele><time>2007-01-31T22:52:36Z</time></trkpt>
<trkpt lat="43.18785500" lon="0.34242800"><ele>378.886414</ele><time>2007-01-31T22:52:36Z</time></trkpt>
<trkpt lat="43.18737400" lon="0.34347600"><ele>386.859192</ele><time>2007-01-31T22:52:36Z</time></trkpt>
<trkpt lat="43.18615300" lon="0.34415700"><ele>395.679993</ele><time>2007-01-31T22:52:36Z</time></trkpt>
<trkpt lat="43.18523000" lon="0.34433700"><ele>397.660797</ele><time>2007-01-31T22:52:36Z</time></trkpt>
<trkpt lat="43.18492900" lon="0.34466600"><ele>402.779205</ele><time>2007-01-31T22:52:36Z</time></trkpt>
<trkpt lat="43.18425800" lon="0.34493600"><ele>407.252808</ele><time>2007-01-31T22:52:36Z</time></trkpt>
<trkpt lat="43.18414700" lon="0.34529600"><ele>410.671997</ele><time>2007-01-31T22:52:36Z</time></trkpt>
<trkpt lat="43.18368500" lon="0.34537300"><ele>395.569611</ele><time>2007-01-31T22:52:36Z</time></trkpt>
<trkpt lat="43.18335700" lon="0.34549500"><ele>392.959991</ele><time>2007-01-31T22:52:36Z</time></trkpt>
<trkpt lat="43.18330000" lon="0.34576700"><ele>395.376007</ele><time>2007-01-31T22:52:36Z</time></trkpt>
<trkpt lat="43.18312800" lon="0.34642400"><ele>403.23999</ele><time>2007-01-31T22:52:36Z</time></trkpt>
<trkpt lat="43.18276600" lon="0.34696500"><ele>414.724823</ele><time>2007-01-31T22:52:36Z</time></trkpt>
<trkpt lat="43.18223600" lon="0.34741300"><ele>425.433594</ele><time>2007-01-31T22:52:36Z</time></trkpt>
<trkpt lat="43.18172500" lon="0.34803200"><ele>438.440002</ele><time>2007-01-31T22:52:36Z</time></trkpt>
<trkpt lat="43.18154900" lon="0.34851800"><ele>447.878418</ele><time>2007-01-31T22:52:36Z</time></trkpt>
<trkpt lat="43.18118300" lon="0.34915600"><ele>458.839996</ele><time>2007-01-31T22:52:36Z</time></trkpt>
<trkpt lat="43.18086600" lon="0.34974400"><ele>465.0672</ele><time>2007-01-31T22:52:36Z</time></trkpt>
<trkpt lat="43.18047000" lon="0.35052000"><ele>474.911987</ele><time>2007-01-31T22:52:36Z</time></trkpt>
<trkpt lat="43.18002300" lon="0.35138200"><ele>481.640015</ele><time>2007-01-31T22:52:36Z</time></trkpt>
<trkpt lat="43.17979000" lon="0.35178300"><ele>485.779205</ele><time>2007-01-31T22:52:36Z</time></trkpt>
<trkpt lat="43.17955000" lon="0.35206200"><ele>494.971191</ele><time>2007-01-31T22:52:36Z</time></trkpt>
<trkpt lat="43.17912700" lon="0.35178200"><ele>499.76001</ele><time>2007-01-31T22:52:36Z</time></trkpt>
<trkpt lat="43.17921800" lon="0.35225800"><ele>505.212799</ele><time>2007-01-31T22:52:36Z</time></trkpt>
<trkpt lat="43.17935600" lon="0.35267000"><ele>510.121613</ele><time>2007-01-31T22:52:36Z</time></trkpt>
<trkpt lat="43.17898600" lon="0.35222900"><ele>508.119995</ele><time>2007-01-31T22:52:36Z</time></trkpt>
<trkpt lat="43.17840200" lon="0.35183100"><ele>505.345612</ele><time>2007-01-31T22:52:36Z</time></trkpt>
<trkpt lat="43.17804000" lon="0.35177000"><ele>502.720001</ele><time>2007-01-31T22:52:36Z</time></trkpt>
<trkpt lat="43.17759300" lon="0.35170000"><ele>499.359985</ele><time>2007-01-31T22:52:36Z</time></trkpt>
<trkpt lat="43.17685300" lon="0.35151600"><ele>495.615997</ele><time>2007-01-31T22:52:36Z</time></trkpt>
<trkpt lat="43.17657900" lon="0.35144000"><ele>496.76001</ele><time>2007-01-31T22:52:36Z</time></trkpt>
<trkpt lat="43.17609000" lon="0.35078200"><ele>494.679993</ele><time>2007-01-31T22:52:36Z</time></trkpt>
<trkpt lat="43.17566700" lon="0.35026800"><ele>495.36319</ele><time>2007-01-31T22:52:36Z</time></trkpt>
<trkpt lat="43.17527000" lon="0.34982700"><ele>491.359985</ele><time>2007-01-31T22:52:36Z</time></trkpt>
<trkpt lat="43.17483500" lon="0.34958500"><ele>490.319977</ele><time>2007-01-31T22:52:36Z</time></trkpt>
<trkpt lat="43.17418300" lon="0.34942300"><ele>492.187195</ele><time>2007-01-31T22:52:36Z</time></trkpt>
<trkpt lat="43.17385500" lon="0.34942200"><ele>496.092804</ele><time>2007-01-31T22:52:36Z</time></trkpt>
<trkpt lat="43.17346200" lon="0.34925100"><ele>502.47998</ele><time>2007-01-31T22:52:36Z</time></trkpt>
<trkpt lat="43.17320300" lon="0.34902700"><ele>509.889587</ele><time>2007-01-31T22:52:36Z</time></trkpt>
<trkpt lat="43.17304600" lon="0.34859000"><ele>516.727966</ele><time>2007-01-31T22:52:36Z</time></trkpt>
<trkpt lat="43.17253100" lon="0.34921000"><ele>527.646423</ele><time>2007-01-31T22:52:36Z</time></trkpt>
<trkpt lat="43.17217300" lon="0.35038900"><ele>533.679993</ele><time>2007-01-31T22:52:36Z</time></trkpt>
<trkpt lat="43.17177200" lon="0.35179000"><ele>538.040039</ele><time>2007-01-31T22:52:36Z</time></trkpt>
<trkpt lat="43.17160000" lon="0.35233600"><ele>539.960022</ele><time>2007-01-31T22:52:36Z</time></trkpt>
<trkpt lat="43.17168400" lon="0.35325400"><ele>541.691223</ele><time>2007-01-31T22:52:36Z</time></trkpt>
<trkpt lat="43.17075700" lon="0.35359400"><ele>542.919983</ele><time>2007-01-31T22:52:36Z</time></trkpt>
<trkpt lat="43.17021900" lon="0.35474100"><ele>546</ele><time>2007-01-31T22:52:36Z</time></trkpt>
<trkpt lat="43.16964300" lon="0.35613700"><ele>543.880005</ele><time>2007-01-31T22:52:36Z</time></trkpt>
<trkpt lat="43.16937300" lon="0.35664900"><ele>541.412781</ele><time>2007-01-31T22:52:36Z</time></trkpt>
<trkpt lat="43.17014300" lon="0.35588600"><ele>544.799988</ele><time>2007-01-31T22:52:36Z</time></trkpt>
<trkpt lat="43.17064300" lon="0.35626200"><ele>539.903992</ele><time>2007-01-31T22:52:36Z</time></trkpt>
<trkpt lat="43.17079500" lon="0.35699400"><ele>535.960022</ele><time>2007-01-31T22:52:36Z</time></trkpt>
<trkpt lat="43.17089100" lon="0.35814400"><ele>533.127991</ele><time>2007-01-31T22:52:36Z</time></trkpt>
<trkpt lat="43.17097900" lon="0.35907400"><ele>531.200012</ele><time>2007-01-31T22:52:36Z</time></trkpt>
<trkpt lat="43.17153500" lon="0.35916600"><ele>529.880005</ele><time>2007-01-31T22:52:36Z</time></trkpt>
<trkpt lat="43.17189800" lon="0.35908000"><ele>528.251221</ele><time>2007-01-31T22:52:36Z</time></trkpt>
<trkpt lat="43.17222600" lon="0.35904400"><ele>524.375977</ele><time>2007-01-31T22:52:36Z</time></trkpt>
<trkpt lat="43.17235900" lon="0.35933400"><ele>523.559998</ele><time>2007-01-31T22:52:36Z</time></trkpt>
<trkpt lat="43.17229800" lon="0.35985200"><ele>524.388794</ele><time>2007-01-31T22:52:36Z</time></trkpt>
<trkpt lat="43.17240100" lon="0.36051200"><ele>521</ele><time>2007-01-31T22:52:36Z</time></trkpt>
<trkpt lat="43.17241300" lon="0.36106400"><ele>517.399963</ele><time>2007-01-31T22:52:36Z</time></trkpt>
<trkpt lat="43.17192500" lon="0.36130100"><ele>520.736023</ele><time>2007-01-31T22:52:36Z</time></trkpt>
<trkpt lat="43.17175300" lon="0.36087800"><ele>524.400024</ele><time>2007-01-31T22:52:36Z</time></trkpt>
<trkpt lat="43.17124900" lon="0.36110300"><ele>523.039978</ele><time>2007-01-31T22:52:36Z</time></trkpt>
<trkpt lat="43.17113900" lon="0.36167200"><ele>519.091187</ele><time>2007-01-31T22:52:36Z</time></trkpt>
<trkpt lat="43.17073400" lon="0.36187100"><ele>516.534363</ele><time>2007-01-31T22:52:36Z</time></trkpt>
<trkpt lat="43.17041400" lon="0.36119400"><ele>520.600037</ele><time>2007-01-31T22:52:36Z</time></trkpt>
<trkpt lat="43.16994900" lon="0.36119800"><ele>518.403198</ele><time>2007-01-31T22:52:36Z</time></trkpt>
<trkpt lat="43.16938800" lon="0.36087300"><ele>515.76001</ele><time>2007-01-31T22:52:36Z</time></trkpt>
<trkpt lat="43.16900600" lon="0.36056700"><ele>515.684753</ele><time>2007-01-31T22:52:36Z</time></trkpt>
<trkpt lat="43.16856400" lon="0.36005400"><ele>517.279968</ele><time>2007-01-31T22:52:36Z</time></trkpt>
<trkpt lat="43.16825500" lon="0.35974500"><ele>519.320007</ele><time>2007-01-31T22:52:36Z</time></trkpt>
<trkpt lat="43.16796900" lon="0.35973100"><ele>521.326355</ele><time>2007-01-31T22:52:36Z</time></trkpt>
<trkpt lat="43.16777800" lon="0.36029000"><ele>518.740784</ele><time>2007-01-31T22:52:36Z</time></trkpt>
<trkpt lat="43.16766700" lon="0.36169300"><ele>499.720001</ele><time>2007-01-31T22:52:36Z</time></trkpt>
<trkpt lat="43.16764800" lon="0.36069900"><ele>513.960022</ele><time>2007-01-31T22:52:36Z</time></trkpt>
<trkpt lat="43.16662600" lon="0.35988700"><ele>514.400024</ele><time>2007-01-31T22:52:36Z</time></trkpt>
<trkpt lat="43.16780500" lon="0.36092700"><ele>510.920013</ele><time>2007-01-31T22:52:36Z</time></trkpt>
<trkpt lat="43.16765600" lon="0.36209900"><ele>494.447998</ele><time>2007-01-31T22:52:36Z</time></trkpt>
<trkpt lat="43.16778900" lon="0.36267100"><ele>487.567993</ele><time>2007-01-31T22:52:36Z</time></trkpt>
<trkpt lat="43.16773600" lon="0.36327500"><ele>483.959991</ele><time>2007-01-31T22:52:36Z</time></trkpt>
<trkpt lat="43.16755700" lon="0.36415300"><ele>483</ele><time>2007-01-31T22:52:36Z</time></trkpt>
<trkpt lat="43.16741200" lon="0.36471000"><ele>482.483185</ele><time>2007-01-31T22:52:36Z</time></trkpt>
<trkpt lat="43.16746100" lon="0.36523600"><ele>480.440002</ele><time>2007-01-31T22:52:36Z</time></trkpt>
<trkpt lat="43.16700400" lon="0.36509300"><ele>478.480011</ele><time>2007-01-31T22:52:36Z</time></trkpt>
<trkpt lat="43.16713000" lon="0.36551800"><ele>476.200012</ele><time>2007-01-31T22:52:36Z</time></trkpt>
<trkpt lat="43.16737400" lon="0.36598800"><ele>473.081604</ele><time>2007-01-31T22:52:36Z</time></trkpt>
<trkpt lat="43.16740800" lon="0.36661300"><ele>465</ele><time>2007-01-31T22:52:36Z</time></trkpt>
<trkpt lat="43.16713300" lon="0.36762900"><ele>459</ele><time>2007-01-31T22:52:36Z</time></trkpt>
<trkpt lat="43.16695000" lon="0.36821300"><ele>459.040009</ele><time>2007-01-31T22:52:36Z</time></trkpt>
<trkpt lat="43.16634800" lon="0.36841800"><ele>462.720001</ele><time>2007-01-31T22:52:36Z</time></trkpt>
<trkpt lat="43.16620300" lon="0.36869300"><ele>463.615997</ele><time>2007-01-31T22:52:36Z</time></trkpt>
<trkpt lat="43.16586700" lon="0.36898700"><ele>464.360016</ele><time>2007-01-31T22:52:36Z</time></trkpt>
<trkpt lat="43.16525700" lon="0.36909400"><ele>466.262421</ele><time>2007-01-31T22:52:36Z</time></trkpt>
<trkpt lat="43.16453600" lon="0.36931500"><ele>467.519989</ele><time>2007-01-31T22:52:36Z</time></trkpt>
<trkpt lat="43.16390600" lon="0.36955700"><ele>466.119995</ele><time>2007-01-31T22:52:36Z</time></trkpt>
<trkpt lat="43.16346400" lon="0.36956000"><ele>464.937592</ele><time>2007-01-31T22:52:36Z</time></trkpt>
<trkpt lat="43.16275800" lon="0.36953500"><ele>466.799988</ele><time>2007-01-31T22:52:36Z</time></trkpt>
<trkpt lat="43.16232300" lon="0.36952600"><ele>470.062408</ele><time>2007-01-31T22:52:36Z</time></trkpt>
<trkpt lat="43.16196400" lon="0.36908400"><ele>475.679993</ele><time>2007-01-31T22:52:36Z</time></trkpt>
<trkpt lat="43.16164800" lon="0.36872600"><ele>478.519989</ele><time>2007-01-31T22:52:36Z</time></trkpt>
<trkpt lat="43.16080100" lon="0.36858300"><ele>482.740814</ele><time>2007-01-31T22:52:36Z</time></trkpt>
<trkpt lat="43.16014500" lon="0.36856900"><ele>484.238373</ele><time>2007-01-31T22:52:36Z</time></trkpt>
<trkpt lat="43.15934000" lon="0.36846100"><ele>494</ele><time>2007-01-31T22:52:36Z</time></trkpt>
<trkpt lat="43.15863000" lon="0.36862000"><ele>492.684814</ele><time>2007-01-31T22:52:36Z</time></trkpt>
<trkpt lat="43.15784100" lon="0.36870900"><ele>494.320007</ele><time>2007-01-31T22:52:36Z</time></trkpt>
<trkpt lat="43.15724600" lon="0.36880300"><ele>497.23999</ele><time>2007-01-31T22:52:36Z</time></trkpt>
<trkpt lat="43.15665400" lon="0.36866400"><ele>501.502411</ele><time>2007-01-31T22:52:36Z</time></trkpt>
<trkpt lat="43.15639100" lon="0.36814500"><ele>508.720001</ele><time>2007-01-31T22:52:36Z</time></trkpt>
<trkpt lat="43.15610100" lon="0.36815500"><ele>508.963196</ele><time>2007-01-31T22:52:36Z</time></trkpt>
<trkpt lat="43.15570400" lon="0.36856100"><ele>507.116791</ele><time>2007-01-31T22:52:36Z</time></trkpt>
<trkpt lat="43.15514800" lon="0.36905900"><ele>508.600006</ele><time>2007-01-31T22:52:36Z</time></trkpt>
<trkpt lat="43.15485800" lon="0.36927700"><ele>510.839996</ele><time>2007-01-31T22:52:36Z</time></trkpt>
<trkpt lat="43.15444200" lon="0.36887400"><ele>514.462402</ele><time>2007-01-31T22:52:36Z</time></trkpt>
<trkpt lat="43.15406800" lon="0.36875200"><ele>517.320007</ele><time>2007-01-31T22:52:36Z</time></trkpt>
<trkpt lat="43.15372100" lon="0.36942700"><ele>519.080017</ele><time>2007-01-31T22:52:36Z</time></trkpt>
<trkpt lat="43.15306100" lon="0.37007600"><ele>527</ele><time>2007-01-31T22:52:36Z</time></trkpt>
<trkpt lat="43.15245800" lon="0.37059900"><ele>541.689575</ele><time>2007-01-31T22:52:36Z</time></trkpt>
<trkpt lat="43.15184400" lon="0.37127100"><ele>552.440002</ele><time>2007-01-31T22:52:36Z</time></trkpt>
<trkpt lat="43.15101600" lon="0.37233100"><ele>561.528015</ele><time>2007-01-31T22:52:36Z</time></trkpt>
<trkpt lat="43.15099700" lon="0.37175400"><ele>562.9552</ele><time>2007-01-31T22:52:36Z</time></trkpt>
<trkpt lat="43.15109600" lon="0.37095200"><ele>564.544006</ele><time>2007-01-31T22:52:36Z</time></trkpt>
<trkpt lat="43.15126400" lon="0.37028400"><ele>563</ele><time>2007-01-31T22:52:36Z</time></trkpt>
<trkpt lat="43.15129500" lon="0.36995200"><ele>561.747192</ele><time>2007-01-31T22:52:36Z</time></trkpt>
<trkpt lat="43.15095900" lon="0.36950900"><ele>562.840027</ele><time>2007-01-31T22:52:36Z</time></trkpt>
<trkpt lat="43.15075300" lon="0.36919700"><ele>562.080017</ele><time>2007-01-31T22:52:36Z</time></trkpt>
<trkpt lat="43.15090200" lon="0.36863900"><ele>555</ele><time>2007-01-31T22:52:36Z</time></trkpt>
<trkpt lat="43.15018800" lon="0.36769400"><ele>547.959961</ele><time>2007-01-31T22:52:36Z</time></trkpt>
<trkpt lat="43.14925000" lon="0.36692900"><ele>541.159973</ele><time>2007-01-31T22:52:36Z</time></trkpt>
<trkpt lat="43.14850200" lon="0.36634000"><ele>539</ele><time>2007-01-31T22:52:36Z</time></trkpt>
<trkpt lat="43.14766300" lon="0.36587800"><ele>539.359985</ele><time>2007-01-31T22:52:36Z</time></trkpt>
<trkpt lat="43.14713300" lon="0.36576200"><ele>543.840027</ele><time>2007-01-31T22:52:36Z</time></trkpt>
<trkpt lat="43.14636600" lon="0.36555400"><ele>551.031982</ele><time>2007-01-31T22:52:36Z</time></trkpt>
<trkpt lat="43.14591600" lon="0.36532500"><ele>552.399963</ele><time>2007-01-31T22:52:36Z</time></trkpt>
<trkpt lat="43.14551500" lon="0.36538700"><ele>555.399963</ele><time>2007-01-31T22:52:36Z</time></trkpt>
<trkpt lat="43.14485900" lon="0.36533600"><ele>557.481628</ele><time>2007-01-31T22:52:36Z</time></trkpt>
<trkpt lat="43.14471100" lon="0.36621300"><ele>569.025574</ele><time>2007-01-31T22:52:36Z</time></trkpt>
<trkpt lat="43.14514500" lon="0.36672600"><ele>570.67041</ele><time>2007-01-31T22:52:36Z</time></trkpt>
<trkpt lat="43.14514500" lon="0.36716700"><ele>573.252808</ele><time>2007-01-31T22:52:36Z</time></trkpt>
<trkpt lat="43.14498500" lon="0.36757800"><ele>575.539246</ele><time>2007-01-31T22:52:36Z</time></trkpt>
<trkpt lat="43.14479800" lon="0.36816100"><ele>578.312012</ele><time>2007-01-31T22:52:36Z</time></trkpt>
<trkpt lat="43.14444400" lon="0.36817300"><ele>579.52002</ele><time>2007-01-31T22:52:36Z</time></trkpt>
<trkpt lat="43.14334100" lon="0.36745000"><ele>580.039978</ele><time>2007-01-31T22:52:36Z</time></trkpt>
<trkpt lat="43.14270800" lon="0.36710300"><ele>579.814392</ele><time>2007-01-31T22:52:36Z</time></trkpt>
<trkpt lat="43.14209000" lon="0.36662100"><ele>579.76001</ele><time>2007-01-31T22:52:36Z</time></trkpt>
<trkpt lat="43.14161700" lon="0.36626900"><ele>579.640015</ele><time>2007-01-31T22:52:36Z</time></trkpt>
<trkpt lat="43.14119300" lon="0.36537600"><ele>577.880005</ele><time>2007-01-31T22:52:36Z</time></trkpt>
<trkpt lat="43.14079700" lon="0.36471400"><ele>575.840027</ele><time>2007-01-31T22:52:36Z</time></trkpt>
<trkpt lat="43.14035400" lon="0.36432500"><ele>575.198425</ele><time>2007-01-31T22:52:36Z</time></trkpt>
<trkpt lat="43.13964500" lon="0.36372300"><ele>573.840027</ele><time>2007-01-31T22:52:36Z</time></trkpt>
<trkpt lat="43.13913300" lon="0.36328600"><ele>573.880005</ele><time>2007-01-31T22:52:36Z</time></trkpt>
<trkpt lat="43.13832500" lon="0.36252900"><ele>575.23999</ele><time>2007-01-31T22:52:36Z</time></trkpt>
<trkpt lat="43.13782100" lon="0.36217800"><ele>577.001587</ele><time>2007-01-31T22:52:36Z</time></trkpt>
<trkpt lat="43.13742100" lon="0.36235100"><ele>580.480042</ele><time>2007-01-31T22:52:36Z</time></trkpt>
<trkpt lat="43.13628000" lon="0.36145700"><ele>581.400024</ele><time>2007-01-31T22:52:36Z</time></trkpt>
<trkpt lat="43.13766100" lon="0.36074800"><ele>567.080017</ele><time>2007-01-31T22:52:36Z</time></trkpt>
<trkpt lat="43.13948100" lon="0.36001000"><ele>564.895996</ele><time>2007-01-31T22:52:36Z</time></trkpt>
<trkpt lat="43.14133500" lon="0.35930800"><ele>570.719971</ele><time>2007-01-31T22:52:36Z</time></trkpt>
<trkpt lat="43.14434400" lon="0.35814900"><ele>575.159973</ele><time>2007-01-31T22:52:36Z</time></trkpt>
<trkpt lat="43.14738500" lon="0.35698900"><ele>573.200012</ele><time>2007-01-31T22:52:36Z</time></trkpt>
<trkpt lat="43.15060800" lon="0.35577300"><ele>568.607971</ele><time>2007-01-31T22:52:36Z</time></trkpt>
<trkpt lat="43.15271800" lon="0.35496400"><ele>564</ele><time>2007-01-31T22:52:36Z</time></trkpt>
<trkpt lat="43.15362200" lon="0.35460100"><ele>562.076782</ele><time>2007-01-31T22:52:36Z</time></trkpt>
<trkpt lat="43.15435400" lon="0.35406100"><ele>558.559998</ele><time>2007-01-31T22:52:36Z</time></trkpt>
<trkpt lat="43.15466700" lon="0.35369400"><ele>556.230408</ele><time>2007-01-31T22:52:36Z</time></trkpt>
<trkpt lat="43.15460200" lon="0.35137600"><ele>550.519958</ele><time>2007-01-31T22:52:36Z</time></trkpt>
<trkpt lat="43.15450300" lon="0.35064300"><ele>549.52002</ele><time>2007-01-31T22:52:36Z</time></trkpt>
<trkpt lat="43.15427800" lon="0.34993900"><ele>549.840027</ele><time>2007-01-31T22:52:36Z</time></trkpt>
<trkpt lat="43.15414400" lon="0.34939100"><ele>549.960022</ele><time>2007-01-31T22:52:36Z</time></trkpt>
<trkpt lat="43.15419400" lon="0.34817400"><ele>545.599976</ele><time>2007-01-31T22:52:36Z</time></trkpt>
<trkpt lat="43.15453700" lon="0.34649300"><ele>541.440002</ele><time>2007-01-31T22:52:36Z</time></trkpt>
<trkpt lat="43.15478500" lon="0.34509700"><ele>540.068787</ele><time>2007-01-31T22:52:36Z</time></trkpt>
<trkpt lat="43.15504800" lon="0.34368800"><ele>536.766418</ele><time>2007-01-31T22:52:36Z</time></trkpt>
<trkpt lat="43.15527700" lon="0.34278400"><ele>532.803223</ele><time>2007-01-31T22:52:36Z</time></trkpt>
<trkpt lat="43.15549900" lon="0.34202800"><ele>527.43042</ele><time>2007-01-31T22:52:36Z</time></trkpt>
<trkpt lat="43.15548300" lon="0.34163500"><ele>524.400024</ele><time>2007-01-31T22:52:36Z</time></trkpt>
<trkpt lat="43.15581100" lon="0.34112100"><ele>519.230408</ele><time>2007-01-31T22:52:36Z</time></trkpt>
<trkpt lat="43.15606300" lon="0.34101400"><ele>515.876831</ele><time>2007-01-31T22:52:36Z</time></trkpt>
<trkpt lat="43.15636100" lon="0.34097900"><ele>513.76001</ele><time>2007-01-31T22:52:36Z</time></trkpt>
<trkpt lat="43.15631900" lon="0.34068500"><ele>512.640015</ele><time>2007-01-31T22:52:36Z</time></trkpt>
<trkpt lat="43.15579200" lon="0.34020100"><ele>507.070404</ele><time>2007-01-31T22:52:36Z</time></trkpt>
<trkpt lat="43.15517800" lon="0.34029600"><ele>505.145599</ele><time>2007-01-31T22:52:36Z</time></trkpt>
<trkpt lat="43.15482300" lon="0.34046700"><ele>503.007996</ele><time>2007-01-31T22:52:36Z</time></trkpt>
<trkpt lat="43.15437700" lon="0.34077800"><ele>498.819183</ele><time>2007-01-31T22:52:36Z</time></trkpt>
<trkpt lat="43.15419400" lon="0.34046500"><ele>488.919983</ele><time>2007-01-31T22:52:36Z</time></trkpt>
<trkpt lat="43.15441900" lon="0.34001500"><ele>483.027191</ele><time>2007-01-31T22:52:36Z</time></trkpt>
<trkpt lat="43.15440400" lon="0.33969600"><ele>475.575989</ele><time>2007-01-31T22:52:36Z</time></trkpt>
<trkpt lat="43.15417100" lon="0.33968000"><ele>470.360016</ele><time>2007-01-31T22:52:36Z</time></trkpt>
<trkpt lat="43.15397300" lon="0.33968700"><ele>468.105591</ele><time>2007-01-31T22:52:36Z</time></trkpt>
<trkpt lat="43.15366000" lon="0.33964900"><ele>463.359985</ele><time>2007-01-31T22:52:36Z</time></trkpt>
<trkpt lat="43.15349200" lon="0.33943300"><ele>456.600006</ele><time>2007-01-31T22:52:36Z</time></trkpt>
<trkpt lat="43.15313700" lon="0.33934800"><ele>453.158386</ele><time>2007-01-31T22:52:36Z</time></trkpt>
<trkpt lat="43.15288200" lon="0.33938100"><ele>450.892822</ele><time>2007-01-31T22:52:36Z</time></trkpt>
<trkpt lat="43.15261100" lon="0.33936600"><ele>450.075195</ele><time>2007-01-31T22:52:36Z</time></trkpt>
<trkpt lat="43.15247000" lon="0.33894100"><ele>447.558411</ele><time>2007-01-31T22:52:36Z</time></trkpt>
<trkpt lat="43.15216400" lon="0.33874300"><ele>446.160004</ele><time>2007-01-31T22:52:36Z</time></trkpt>
<trkpt lat="43.15205000" lon="0.33837900"><ele>444.707214</ele><time>2007-01-31T22:52:36Z</time></trkpt>
<trkpt lat="43.15202000" lon="0.33774200"><ele>447.311981</ele><time>2007-01-31T22:52:36Z</time></trkpt>
<trkpt lat="43.15306500" lon="0.33674800"><ele>455.140808</ele><time>2007-01-31T22:52:36Z</time></trkpt>
<trkpt lat="43.15346100" lon="0.33634100"><ele>459.528015</ele><time>2007-01-31T22:52:36Z</time></trkpt>
<trkpt lat="43.15395400" lon="0.33558700"><ele>467.919983</ele><time>2007-01-31T22:52:36Z</time></trkpt>
<trkpt lat="43.15390800" lon="0.33533100"><ele>471.558411</ele><time>2007-01-31T22:52:36Z</time></trkpt>
<trkpt lat="43.15384700" lon="0.33511200"><ele>475.007996</ele><time>2007-01-31T22:52:36Z</time></trkpt>
<trkpt lat="43.15413300" lon="0.33486900"><ele>476.545593</ele><time>2007-01-31T22:52:36Z</time></trkpt>
<trkpt lat="43.15474700" lon="0.33452900"><ele>477.902405</ele><time>2007-01-31T22:52:36Z</time></trkpt>
<trkpt lat="43.15515100" lon="0.33403600"><ele>486.254395</ele><time>2007-01-31T22:52:36Z</time></trkpt>
<trkpt lat="43.15545300" lon="0.33374300"><ele>490.860779</ele><time>2007-01-31T22:52:36Z</time></trkpt>
<trkpt lat="43.15560900" lon="0.33339400"><ele>494.238403</ele><time>2007-01-31T22:52:36Z</time></trkpt>
<trkpt lat="43.15551000" lon="0.33278400"><ele>499.822388</ele><time>2007-01-31T22:52:36Z</time></trkpt>
<trkpt lat="43.15530400" lon="0.33255700"><ele>506.785614</ele><time>2007-01-31T22:52:36Z</time></trkpt>
<trkpt lat="43.15504800" lon="0.33138800"><ele>515.76001</ele><time>2007-01-31T22:52:36Z</time></trkpt>
<trkpt lat="43.15513600" lon="0.33063600"><ele>514.695984</ele><time>2007-01-31T22:52:36Z</time></trkpt>
<trkpt lat="43.15511700" lon="0.33021900"><ele>515.579224</ele><time>2007-01-31T22:52:36Z</time></trkpt>
<trkpt lat="43.15493400" lon="0.32930500"><ele>521.080017</ele><time>2007-01-31T22:52:36Z</time></trkpt>
<trkpt lat="43.15502200" lon="0.32889700"><ele>524.387207</ele><time>2007-01-31T22:52:36Z</time></trkpt>
<trkpt lat="43.15557900" lon="0.32887700"><ele>526.167969</ele><time>2007-01-31T22:52:36Z</time></trkpt>
<trkpt lat="43.15623900" lon="0.32883000"><ele>533.235168</ele><time>2007-01-31T22:52:36Z</time></trkpt>
<trkpt lat="43.15655900" lon="0.32856100"><ele>538.200012</ele><time>2007-01-31T22:52:36Z</time></trkpt>
<trkpt lat="43.15668900" lon="0.32812600"><ele>540.679993</ele><time>2007-01-31T22:52:36Z</time></trkpt>
<trkpt lat="43.15614700" lon="0.32766600"><ele>539.752014</ele><time>2007-01-31T22:52:36Z</time></trkpt>
<trkpt lat="43.15579200" lon="0.32763000"><ele>539.462402</ele><time>2007-01-31T22:52:36Z</time></trkpt>
<trkpt lat="43.15511300" lon="0.32742000"><ele>540.639954</ele><time>2007-01-31T22:52:36Z</time></trkpt>
<trkpt lat="43.15494900" lon="0.32630900"><ele>536.52002</ele><time>2007-01-31T22:52:36Z</time></trkpt>
<trkpt lat="43.15496100" lon="0.32570700"><ele>531.558411</ele><time>2007-01-31T22:52:36Z</time></trkpt>
<trkpt lat="43.15522400" lon="0.32540300"><ele>527.742432</ele><time>2007-01-31T22:52:36Z</time></trkpt>
<trkpt lat="43.15574300" lon="0.32506600"><ele>519.382446</ele><time>2007-01-31T22:52:36Z</time></trkpt>
<trkpt lat="43.15654400" lon="0.32480400"><ele>513.265625</ele><time>2007-01-31T22:52:36Z</time></trkpt>
<trkpt lat="43.15713500" lon="0.32431800"><ele>515.956787</ele><time>2007-01-31T22:52:36Z</time></trkpt>
<trkpt lat="43.15740600" lon="0.32396400"><ele>517.012756</ele><time>2007-01-31T22:52:36Z</time></trkpt>
<trkpt lat="43.15787500" lon="0.32275700"><ele>523.599976</ele><time>2007-01-31T22:52:36Z</time></trkpt>
<trkpt lat="43.15831800" lon="0.32163600"><ele>527.039978</ele><time>2007-01-31T22:52:36Z</time></trkpt>
<trkpt lat="43.15872600" lon="0.32088600"><ele>529.440002</ele><time>2007-01-31T22:52:36Z</time></trkpt>
<trkpt lat="43.16011800" lon="0.31914300"><ele>536.787231</ele><time>2007-01-31T22:52:36Z</time></trkpt>
<trkpt lat="43.16082400" lon="0.31814800"><ele>542.640015</ele><time>2007-01-31T22:52:36Z</time></trkpt>
<trkpt lat="43.16141900" lon="0.31718200"><ele>545.87677</ele><time>2007-01-31T22:52:36Z</time></trkpt>
<trkpt lat="43.16178500" lon="0.31650600"><ele>547.913574</ele><time>2007-01-31T22:52:36Z</time></trkpt>
<trkpt lat="43.16342500" lon="0.31624000"><ele>546</ele><time>2007-01-31T22:52:36Z</time></trkpt>
<trkpt lat="43.16679400" lon="0.31373900"><ele>539.200012</ele><time>2007-01-31T22:52:36Z</time></trkpt>
<trkpt lat="43.16821300" lon="0.31258400"><ele>535</ele><time>2007-01-31T22:52:36Z</time></trkpt>
<trkpt lat="43.16940300" lon="0.31210000"><ele>531.812805</ele><time>2007-01-31T22:52:36Z</time></trkpt>
<trkpt lat="43.17069600" lon="0.31151400"><ele>533.006409</ele><time>2007-01-31T22:52:36Z</time></trkpt>
<trkpt lat="43.17137100" lon="0.31036100"><ele>524.83197</ele><time>2007-01-31T22:52:36Z</time></trkpt>
<trkpt lat="43.17186000" lon="0.30825600"><ele>525.799988</ele><time>2007-01-31T22:52:36Z</time></trkpt>
<trkpt lat="43.17228300" lon="0.30601900"><ele>524.438416</ele><time>2007-01-31T22:52:36Z</time></trkpt>
<trkpt lat="43.17247000" lon="0.30297900"><ele>524.040039</ele><time>2007-01-31T22:52:36Z</time></trkpt>
<trkpt lat="43.17242800" lon="0.30100300"><ele>524.840027</ele><time>2007-01-31T22:52:36Z</time></trkpt>
<trkpt lat="43.17234800" lon="0.29761700"><ele>520.903992</ele><time>2007-01-31T22:52:36Z</time></trkpt>
<trkpt lat="43.17235900" lon="0.29708900"><ele>521.883179</ele><time>2007-01-31T22:52:36Z</time></trkpt>
<trkpt lat="43.17268400" lon="0.29475600"><ele>522.200012</ele><time>2007-01-31T22:52:36Z</time></trkpt>
<trkpt lat="43.17279400" lon="0.29354900"><ele>523.400024</ele><time>2007-01-31T22:52:36Z</time></trkpt>
<trkpt lat="43.17273700" lon="0.29285100"><ele>523.320007</ele><time>2007-01-31T22:52:36Z</time></trkpt>
<trkpt lat="43.17256500" lon="0.29156800"><ele>519.003174</ele><time>2007-01-31T22:52:36Z</time></trkpt>
<trkpt lat="43.17250400" lon="0.29078400"><ele>516.747192</ele><time>2007-01-31T22:52:36Z</time></trkpt>
<trkpt lat="43.17268000" lon="0.29029900"><ele>515</ele><time>2007-01-31T22:52:36Z</time></trkpt>
<trkpt lat="43.17308400" lon="0.29056700"><ele>516.78241</ele><time>2007-01-31T22:52:36Z</time></trkpt>
<trkpt lat="43.17411800" lon="0.29098400"><ele>520.799988</ele><time>2007-01-31T22:52:36Z</time></trkpt>
<trkpt lat="43.17549900" lon="0.29156100"><ele>521.440002</ele><time>2007-01-31T22:52:36Z</time></trkpt>
<trkpt lat="43.17575500" lon="0.29174900"><ele>522.039978</ele><time>2007-01-31T22:52:36Z</time></trkpt>
<trkpt lat="43.17626600" lon="0.28955700"><ele>512</ele><time>2007-01-31T22:52:36Z</time></trkpt>
<trkpt lat="43.17668900" lon="0.28795800"><ele>507.799988</ele><time>2007-01-31T22:52:36Z</time></trkpt>
<trkpt lat="43.17686500" lon="0.28647800"><ele>504.880005</ele><time>2007-01-31T22:52:36Z</time></trkpt>
</trkseg></trk></gpx>